This is the latest recevied weather packets stored in our database for station/object GW7110. If no packets are shown the sender has not sent any weather packets the latest 10 day(s).
| Time | Temp. | Humidity | Pressure | Rain* | Wind** | Luminosity | Snow |
|---|---|---|---|---|---|---|---|
| 1777473539 | 20° C | 84% | 30 hPa | 0 mm | - | 172 W/m² | - |
| 1777472641 | 20° C | 86% | 30 hPa | 0 mm | - | 136 W/m² | - |
| 1777472339 | 20° C | 86% | 30 hPa | 0 mm | - | 140 W/m² | - |
| 1777471738 | 20° C | 87% | 30 hPa | 0 mm | - | 132 W/m² | - |
| 1777471440 | 19.44° C | 88% | 30 hPa | 0 mm | - | 120 W/m² | - |
| 1777471138 | 19.44° C | 87% | 30 hPa | 0 mm | - | 108 W/m² | - |
| 1777469774 | 18.89° C | 88% | 30 hPa | 0 mm | - | 75 W/m² | - |
| 1777469474 | 18.89° C | 88% | 30 hPa | 0 mm | - | 50 W/m² | - |
| 1777467376 | 18.89° C | 87% | 30 hPa | 0 mm | - | 54 W/m² | - |
| 1777466774 | 18.89° C | 88% | 30 hPa | 0 mm | - | 64 W/m² | - |
| 1777466173 | 18.33° C | 88% | 30 hPa | 0 mm | - | 125 W/m² | - |
| 1777465573 | 18.33° C | 90% | 30 hPa | 0 mm | - | 63 W/m² | - |
| 1777465274 | 17.78° C | 90% | 30 hPa | 0 mm | - | 55 W/m² | - |
| 1777464676 | 17.78° C | 90% | 30 hPa | 0 mm | - | 43 W/m² | - |
| 1777464374 | 17.78° C | 90% | 30 hPa | 0 mm | - | 43 W/m² | - |
| 1777462573 | 17.78° C | 90% | 30 hPa | 0 mm | - | 19 W/m² | - |
| 1777462274 | 17.78° C | 90% | 30 hPa | 0 mm | - | 14 W/m² | - |
| 1777461673 | 17.78° C | 90% | 30 hPa | 0 mm | - | 7 W/m² | - |
| 1777461373 | 17.22° C | 90% | 30 hPa | 0 mm | - | 6 W/m² | - |
| 1777461074 | 17.22° C | 90% | 30 hPa | 0 mm | - | 4 W/m² | - |
| 1777460174 | 17.22° C | 89% | 30 hPa | 0 mm | - | 1 W/m² | - |
| 1777458974 | 17.22° C | 89% | 30 hPa | 0 mm | - | 0 W/m² | - |
| 1777458675 | 17.78° C | 89% | 30 hPa | 0 mm | - | 0 W/m² | - |
| 1777458375 | 17.78° C | 89% | 30 hPa | 0 mm | - | 0 W/m² | - |
| 1777458074 | 17.78° C | 89% | 30 hPa | 0 mm | - | 0 W/m² | - |
* Rain latest hour (hover to see other rain measurements)
** Current wind speed in m/s (hover to see current wind gust speed)